Location: Aulus
(42.7909°N, 1.3399°E)
Time: 06:00:18
(UTC+00:00)

NOSS 3-1 (A) - Pass Details

Date: 19 May 2025
Orbit: 667 x 1541 km, 63.4° (Epoch: 14 June)

Event Time Altitude Azimuth Distance (km) Brightness Sun altitude
Exits shadow 20:49:58 23° 132° (SE) 1,496 3.9 -14.7°
Maximum altitude 20:51:04 25° 111° (ESE) 1,450 3.9 -14.8°
Drops below altitude 10° 20:55:23 10° 57° (ENE) 2,391 5.5 -15.3°
Sets 20:58:23 0° 45° (NE) 3,462 6.4 -15.7°
